Frying Pan Shoals, NC (41013)

Conditions for Die Solis

Daily
Weekly
Monthly
Marine Data Graph

Current Weather/Wave Observations

Air Temperature: 59° F
Humidity: 89
Wind direction (W Dir): Magis Aquilo quam Eurus (15 - 24 Degrees)
Wind Speed (W Spd): 15.6 kts (17.9 mph)
Wind Gust (W Spd): 17.5 kts (20.1 mph)
Atmospheric Pressure (AP): 29.99 in

Updated: 05:20 PM EST die 17o February, anno 2019

Marine & Boating Location Search

Enter a coastal zip code for marine weather.

General Information

Location: 33.436 North -77.743 West
Buoy Type: 2.3-meter foam discus buoy
Buoy Hull: 2.3D01
Payload: SCOOP payload
Owned by: NDBC
Windspeed: Measured by obtained from anemometer
Sea Surface: Measured by Intake
Note: Right whales are active off NC from November to April. Speed restrictions of 10 knots apply to vessels 65 feet or greater in specific areas and times along the mid-Atlantic coast. To learn more about right whales and rules protecting them, go to: http://www.nmfs.noaa.gov/pr/shipstrike/

Weather and Wave Data

Time Temp Humidity Wind Dominant Wave Wind Wave Wave Swell Pressure
  Air
(°F)
Water
(°F)
  Dir Speed
(kts)
Speed
(mph)
Period
(sec)
Height
(ft)
Range
(ft)
Period
(sec)
Height
(ft)
Range
(ft)
Period
(sec)
Height
(ft)
Range
(ft)
Atmo.
(in)
Tend.
(in)
20:20 51 67 95 Aquilo 19.4 22.4 - - - - - - 29.88 -
20:30 51 68 93 Magis Aquilo quam Eurus 21.4 24.6 - - - - - - 29.88 -
20:40 51 68 94 Magis Aquilo quam Eurus 21.4 24.6 - - - - - - 29.89 -
20:50 51 68 93 Magis Aquilo quam Eurus 21.4 24.6 5 5.91 exactly 5.9 5 6.56 5.74 - 7.38 - - - 29.90 -
21:10 51 67 92 Aquilo 19.4 22.4 - - - - - - 29.91 -
21:20 51 67 94 Aquilo 19.4 22.4 - - - - - - 29.92 -
21:30 51 67 95 Aquilo 19.4 22.4 - - - - - - 29.92 -
21:50 51 67 92 Aquilo 21.4 24.6 6 5.58 exactly 5.6 6 4.92 4.10 - 5.74 - - - 29.92 -
22:30 51 67 93 Aquilo 21.4 24.6 - - - - - - 29.93 -
22:40 51 67 93 Aquilo 21.4 24.6 - - - - - - 29.93 -
22:50 51 67 93 Aquilo 19.4 22.4 6 5.58 exactly 5.6 6 4.92 4.10 - 5.74 - - - 29.94 -
23:10 51 68 93 Aquilo 19.4 22.4 - - - - - - 29.95 -
23:20 51 68 92 Aquilo 19.4 22.4 - - - - - - 29.95 -
23:30 51 68 92 Aquilo 19.4 22.4 - - - - - - 29.95 -
23:40 51 68 91 Aquilo 19.4 22.4 - - - - - - 29.95 -
23:50 52 68 88 Aquilo 17.5 20.1 6 5.58 exactly 5.6 6 4.92 4.10 - 5.74 - - - 29.95 -
00:10 52 67 89 Magis Aquilo quam Eurus 17.5 20.1 - - - - - - 29.96 -
00:20 53 67 87 Magis Aquilo quam Eurus 17.5 20.1 - - - - - - 29.95 -
00:30 52 67 89 Magis Aquilo quam Eurus 17.5 20.1 - - - - - - 29.95 -
00:40 53 67 87 Magis Aquilo quam Eurus 19.4 22.4 - - - - - - 29.95 -
01:10 52 68 91 Magis Aquilo quam Eurus 19.4 22.4 - - - - - - 29.95 -
01:20 52 68 90 Magis Aquilo quam Eurus 19.4 22.4 - - - - - - 29.95 -
01:30 52 68 89 Magis Aquilo quam Eurus 17.5 20.1 - - - - - - 29.95 -
01:40 52 67 89 Magis Aquilo quam Eurus 17.5 20.1 - - - - - - 29.96 -
02:10 52 67 91 Magis Aquilo quam Eurus 17.5 20.1 - - - - - - 29.97 -
02:30 52 68 90 Magis Aquilo quam Eurus 17.5 20.1 - - - - - - 29.97 -
03:10 52 68 90 Magis Aquilo quam Eurus 17.5 20.1 - - - - - - 29.96 -
03:20 52 68 92 Magis Aquilo quam Eurus 17.5 20.1 - - - - - - 29.96 -
03:30 52 68 92 Magis Aquilo quam Eurus 17.5 20.1 - - - - - - 29.96 -
03:40 53 68 90 Magis Aquilo quam Eurus 17.5 20.1 - - - - - - 29.95 -
04:10 53 68 91 Aquilo 15.6 17.9 - - - - - - 29.97 -
04:20 53 68 90 Aquilo 15.6 17.9 - - - - - - 29.97 -
04:30 53 68 89 Magis Aquilo quam Eurus 15.6 17.9 - - - - - - 29.98 -
04:40 53 68 91 Aquilo 15.6 17.9 - - - - - - 29.97 -
04:50 53 68 89 Magis Aquilo quam Eurus 15.6 17.9 6 4.92 exactly 4.9 6 4.92 4.10 - 5.74 12 1.64 0.82 - 2.46 29.98 -
05:00 53 68 90 Aquilo 15.6 17.9 - - - - - - 29.98 +0.02
05:10 53 68 90 Aquilo 15.6 17.9 - - - - - - 29.99 -
05:20 53 68 89 Aquilo 15.6 17.9 - - - - - - 29.99 -
05:30 54 68 86 Magis Aquilo quam Eurus 15.6 17.9 - - - - - - 29.99 -
05:40 54 68 86 Magis Aquilo quam Eurus 17.5 20.1 - - - - - - 29.99 -
05:50 54 68 87 Magis Aquilo quam Eurus 17.5 20.1 6 4.59 exactly 4.6 6 4.92 4.10 - 5.74 12 1.64 0.82 - 2.46 29.99 -
06:00 54 68 87 Magis Aquilo quam Eurus 15.6 17.9 - - - - - - 30.00 +0.04
06:10 54 68 87 Magis Aquilo quam Eurus 15.6 17.9 - - - - - - 30.01 -
06:20 54 68 86 Magis Aquilo quam Eurus 17.5 20.1 - - - - - - 30.01 -
06:50 54 68 87 Inter Aquilonem et Eurum 13.6 15.7 6 4.27 exactly 4.3 6 4.92 4.10 - 5.74 - - - 30.01 -
07:10 55 68 84 Magis Aquilo quam Eurus 15.6 17.9 - - - - - - 30.02 -
07:20 55 68 84 Inter Aquilonem et Eurum 13.6 15.7 - - - - - - 30.02 -
07:30 55 68 86 Magis Aquilo quam Eurus 15.6 17.9 - - - - - - 30.02 -
07:40 55 68 88 Magis Aquilo quam Eurus 13.6 15.7 - - - - - - 30.03 -
07:50 55 68 87 Magis Aquilo quam Eurus 13.6 15.7 6 4.27 exactly 4.3 6 3.28 2.46 - 4.10 8 1.64 0.82 - 2.46 30.04 -
08:10 56 68 84 Magis Aquilo quam Eurus 15.6 17.9 - - - - - - 30.04 -
08:20 56 68 84 Inter Aquilonem et Eurum 15.6 17.9 - - - - - - 30.04 -
08:30 56 68 86 Inter Aquilonem et Eurum 13.6 15.7 - - - - - - 30.05 -
08:40 56 68 86 Magis Aquilo quam Eurus 13.6 15.7 - - - - - - 30.05 -
08:50 57 68 84 Magis Aquilo quam Eurus 13.6 15.7 6 4.27 exactly 4.3 6 3.28 2.46 - 4.10 8 1.64 0.82 - 2.46 30.04 -
09:10 57 68 85 Magis Aquilo quam Eurus 13.6 15.7 - - - - - - 30.04 -
09:20 57 68 86 Magis Aquilo quam Eurus 15.6 17.9 - - - - - - 30.04 -
09:30 57 68 86 Magis Aquilo quam Eurus 15.6 17.9 - - - - - - 30.04 -
09:40 57 68 86 Magis Aquilo quam Eurus 15.6 17.9 - - - - - - 30.04 -
10:20 58 67 86 Magis Aquilo quam Eurus 11.7 13.4 - - - - - - 30.04 -
10:30 58 67 89 Magis Aquilo quam Eurus 11.7 13.4 - - - - - - 30.03 -
10:40 59 67 87 Inter Aquilonem et Eurum 9.7 11.2 - - - - - - 30.05 -
11:10 58 67 87 Aquilo 13.6 15.7 - - - - - - 30.05 -
11:30 58 67 87 Aquilo 13.6 15.7 - - - - - - 30.05 -
11:40 58 68 89 Magis Aquilo quam Eurus 13.6 15.7 - - - - - - 30.04 -
11:50 59 68 85 Magis Aquilo quam Eurus 13.6 15.7 8 4.27 exactly 4.3 6 3.28 2.46 - 4.10 8 3.28 2.46 - 4.10 30.04 -
12:00 59 68 87 Magis Aquilo quam Eurus 13.6 15.7 - - - - - - 30.04 -
12:20 59 68 86 Magis Aquilo quam Eurus 11.7 13.4 - - - - - - 30.05 -
12:30 59 68 87 Magis Aquilo quam Eurus 9.7 11.2 - - - - - - 30.04 -
12:40 59 68 88 Magis Aquilo quam Eurus 9.7 11.2 - - - - - - 30.04 -
12:50 60 68 85 Magis Aquilo quam Eurus 9.7 11.2 8 4.27 exactly 4.3 4 1.64 0.82 - 2.46 8 3.28 2.46 - 4.10 30.04 -
13:10 60 68 88 Inter Aquilonem et Eurum 9.7 11.2 - - - - - - 30.02 -
13:20 61 68 86 Inter Aquilonem et Eurum 9.7 11.2 - - - - - - 30.02 -
13:30 62 68 85 Magis Eurus quam Aquilo 9.7 11.2 - - - - - - 30.02 -
13:40 63 69 82 Magis Eurus quam Aquilo 9.7 11.2 - - - - - - 30.02 -
13:50 63 69 83 Magis Eurus quam Aquilo 9.7 11.2 8 3.94 exactly 3.9 4 1.64 0.82 - 2.46 8 3.28 2.46 - 4.10 30.01 -
14:00 64 68 80 Magis Eurus quam Aquilo 7.8 8.9 - - - - - - 30.01 -0.04
14:10 64 68 81 Magis Eurus quam Aquilo 9.7 11.2 - - - - - - 30.01 -
14:20 64 69 81 Magis Eurus quam Aquilo 7.8 8.9 - - - - - - 30.01 -
14:30 64 69 82 Inter Aquilonem et Eurum 7.8 8.9 - - - - - - 30.01 -
14:40 64 69 82 Magis Eurus quam Aquilo 7.8 8.9 - - - - - - 30.01 -
14:50 64 69 82 Inter Aquilonem et Eurum 7.8 8.9 9 3.94 exactly 3.9 4 1.64 0.82 - 2.46 9 3.28 2.46 - 4.10 30.00 -
15:10 64 69 84 Inter Aquilonem et Eurum 7.8 8.9 - - - - - - 30.00 -
15:20 64 69 84 Inter Aquilonem et Eurum 7.8 8.9 - - - - - - 30.00 -
15:30 64 69 85 Inter Aquilonem et Eurum 7.8 8.9 - - - - - - 30.00 -
15:40 63 69 85 Magis Aquilo quam Eurus 9.7 11.2 - - - - - - 30.01 -
15:50 61 69 88 Aquilo 11.7 13.4 8 3.61 exactly 3.6 4 1.64 0.82 - 2.46 8 3.28 2.46 - 4.10 30.01 -
16:10 60 69 88 Aquilo 15.6 17.9 - - - - - - 30.00 -
16:20 59 69 89 Aquilo 15.6 17.9 - - - - - - 30.01 -
16:40 58 69 90 Magis Aquilo quam Eurus 15.6 17.9 - - - - - - 29.99 -
16:50 58 69 90 Magis Aquilo quam Eurus 15.6 17.9 10 3.61 exactly 3.6 6 3.28 2.46 - 4.10 10 3.28 2.46 - 4.10 29.99 -
17:00 58 69 91 Aquilo 15.6 17.9 - - - - - - 29.99 -0.02
17:10 58 69 90 Aquilo 15.6 17.9 - - - - - - 29.99 -
17:20 59 69 89 Magis Aquilo quam Eurus 15.6 17.9 - - - - - - 29.99 -

Detailed Wave Spectra

Time Water Depth Wave Height Spectral Peak Period Average Wave Period Sampling Interval Wave Record
20:00 79 ft 5.28 ft 4.2 sec 4.5 sec 0.6 sec 2400 sec
21:00 79 ft 6.00 ft 4.8 sec 4.6 sec 0.6 sec 2400 sec
22:00 79 ft 5.54 ft 5.9 sec 4.8 sec 0.6 sec 2400 sec
23:00 79 ft 5.51 ft 5.9 sec 4.7 sec 0.6 sec 2400 sec
00:00 79 ft 5.54 ft 6.3 sec 4.8 sec 0.6 sec 2400 sec
02:00 79 ft 5.38 ft 7.1 sec 5.0 sec 0.6 sec 2400 sec
03:00 79 ft 5.18 ft 5.6 sec 4.8 sec 0.6 sec 2400 sec
07:00 79 ft 4.30 ft 5.9 sec 4.7 sec 0.6 sec 2400 sec
08:00 79 ft 4.20 ft 6.3 sec 4.7 sec 0.6 sec 2400 sec
09:00 79 ft 4.36 ft 5.6 sec 4.8 sec 0.6 sec 2400 sec
10:00 79 ft 4.46 ft 8.3 sec 4.8 sec 0.6 sec 2400 sec
11:00 79 ft 4.63 ft 8.3 sec 5.2 sec 0.6 sec 2400 sec
13:00 79 ft 4.23 ft 8.3 sec 5.3 sec 0.6 sec 2400 sec
15:00 79 ft 3.81 ft 9.1 sec 5.5 sec 0.6 sec 2400 sec
16:00 79 ft 3.67 ft 8.3 sec 5.6 sec 0.6 sec 2400 sec